www.pogodaiklimat.ru

Погода и климат >> Архив погоды >> Индия >> Jorhat


ПОГОДА в Jorhat

  • Прогноз погоды в Jorhat
  • Монитор погоды в Jorhat
  • Климат города

АРХИВ ПОГОДЫ в Jorhat

Время (UTC), дата Ветер
(напр.,м/с)
 
Видим.   Явления Облачность Т
(С)
Тd
(С)
f
(%)
Тe
(С)
Тes
(С)
Комфортность P
(гПа)
Po
(гПа)
Тmin
(С)
Tmax
(С)
R
(мм)
R24
(мм)
S
(см)
03 11.07 СЗ 1 4000 м 6/5 600 м
[Sc diur, vesp Ac trans]
+30.0 +26.4 81 +46 +53 опасность
перегрева
1000.2 1000.0 +26.1 0.5
06 11.07 С 1 4000 м 6/5 600 м
[Sc diur, vesp Ac trans]
+32.2 +27.0 74 +50 +61 опасность
перегрева
999.4 999.0
09 11.07 З 1 4000 м 6/5 600 м
[Sc diur, vesp Ac trans]
+34.0 +27.4 69 +53 +59 опасность
перегрева
996.5 997.0
12 11.07 СЗ 1 4000 м 5/3 750 м
[Cu hum Ac trans Ci fib]
+33.0 +26.3 68 +49 +50 опасность
перегрева
995.3 995.0
03 12.07 В 1 4000 м 9/6 540 м
[Sc diur, vesp Ac trans]
+28.4 +26.2 88 +43 +47 опасность
перегрева
999.7 1000.0 +24.7 20
06 12.07 С 1 4000 м 9/6 600 м
[Sc diur, vesp Ac trans]
+30.2 +26.9 83 +47 +53 опасность
перегрева
999.4 999.0
09 12.07 В 1 4000 м 6/5 600 м
[Sc diur, vesp Ac trans]
+32.2 +27.0 74 +50 +56 опасность
перегрева
997.0 997.0
12 12.07 СВ 1 4000 м 5/3 750 м
[Sc diur, vesp Ac trans]
+30.8 +26.9 80 +48 +48 опасность
перегрева
996.0 996.0 +33.0
03 13.07 СВ 1 4000 м 9/6 600 м
[Sc diur, vesp Ac trans]
+27.6 +26.2 92 +42 +45 опасность
перегрева
1000.2 1000.0 +25.5 0.7
06 13.07 С 1 4000 м 8/5 600 м
[Sc diur, vesp Ac trans]
+32.0 +26.4 72 +48 +57 опасность
перегрева
999.2 999.0
09 13.07 СЗ 2 4000 м 6/4 750 м
[Cu hum Ac trans]
+33.6 +27.6 71 +53 +59 опасность
перегрева
997.1 997.0
12 13.07 ЮЗ 1 4000 м 8/5 600 м
[Sc diur, vesp Ac trans Ci fib]
+29.6 +26.5 83 +45 +45 опасность
перегрева
995.7 996.0 +34.0 1
03 14.07 штиль 0 4000 м 9/6 600 м
[Cb calv Ac trans]
+30.0 +27.2 85 +48 +52 опасность
перегрева
1009.3 1009.0 +26.7 1
06 14.07 С 2 4000 м 8/5 600 м
[Sc diur, vesp Ac trans]
+31.6 +27.8 80 +51 +59 опасность
перегрева
998.3 998.0
09 14.07 С 1 4000 м 8/5 600 м
[Sc diur, vesp Ac trans]
+34.0 +27.4 69 +53 +58 опасность
перегрева
996.1 996.0
12 14.07 С 1 4000 м 5/4 600 м
[Sc diur, vesp Ac trans]
+33.0 +27.2 72 +52 +52 опасность
перегрева
994.3 994.0 +34.2
03 15.07 штиль 0 4000 м 8/5 600 м
[Sc diur, vesp Ac trans Ci fib]
+30.8 +26.6 78 +47 +54 опасность
перегрева
1000.0 1000.0 +25.4 2
06 15.07 В 2 4000 м 8/5 600 м
[Sc diur, vesp Ac trans]
+31.8 +26.8 75 +49 +57 опасность
перегрева
999.2 999.0
09 15.07 СВ 1 4000 м 8/5 600 м
[Sc diur, vesp Ac trans]
+33.0 +27.2 72 +52 +56 опасность
перегрева
997.3 997.0
12 15.07 СВ 1 4000 м 6/4 600 м
[Sc diur, vesp Ac trans]
+32.6 +27.1 73 +51 +51 опасность
перегрева
995.7 996.0 +33.6
03 16.07 СВ 1 4000 м 8/5 600 м
[Sc diur, vesp Ac trans]
+30.0 +27.2 85 +48 +53 опасность
перегрева
1000.3 1000.0 +26.5
06 16.07 З 1 4000 м 8/5 600 м
[Sc diur, vesp Ac trans]
+32.6 +27.1 73 +51 +59 опасность
перегрева
999.6 1000.0
09 16.07 СЗ 1 4000 м 5/4 600 м
[Sc diur, vesp Ac trans]
+34.6 +27.2 66 +53 +60 опасность
перегрева
996.7 997.0
12 16.07 С 1 4000 м 5/4 600 м
[Sc diur, vesp Ac trans]
+34.2 +28.5 72 +56 +56 опасность
перегрева
995.9 996.0 +35.4
03 17.07 ЮВ 1 4000 м 9/5 600 м
[Sc diur, vesp Ac trans]
+28.2 +27.1 94 +45 +49 опасность
перегрева
1001.0 1001.0 +26.5 2
06 17.07 штиль 0 4000 м 9/6 600 м
[Sc diur, vesp Ac trans]
+30.8 +27.4 82 +49 +56 опасность
перегрева
1000.6 1001.0
09 17.07 Ю 1 4000 м 9/6 600 м
[Sc diur, vesp Ac trans]
+29.8 +27.0 85 +47 +50 опасность
перегрева
998.7 999.0
12 17.07 СВ 1 4000 м 8/5 600 м
[Sc diur, vesp Ac trans]
+29.2 +27.0 88 +46 +46 опасность
перегрева
997.2 997.0 +30.7

 

Местоположение метеостанции Jorhat (Assam, Индия): широта 26.75 долгота 94.20 высота над уровнем моря 87 м.

В архиве по умолчанию представлена погода в Jorhat за последнюю неделю. Архивные данные за месяц целиком и за предыдущие месяцы, начиная с января 2011 года, Вы можете получить, выбрав интересующий диапазон дат из раскрывающегося списка и нажав кнопку "Ввод!".


*Определитесь, кто Вы:
робот инопланетянин человек

Внимание! Время в таблицах - всемирное. Для получения местного времени необходимо прибавить поправку, которая в Jorhat равна 5.5 ч.

Смотрите также архив погоды в соседних городах и на ближайших метеорологических станциях:

Погода в Golaghat (Assam, Индия) (34 км)
Погода в North Lakhimpur (Assam, Индия) (54 км)
Погода в Itanagar (Arunachal Pradesh, Индия) (69 км)
Погода в Dibrugarh (Assam, Индия) (115 км)
Погода в Kohima (Nagaland, Индия) (125 км)
Погода в Tezpur (Assam, Индия) (142 км)
Погода в Lumding (Assam, Индия) (151 км)
Погода в Hkamti (Мьянма) (171 км)
Погода в Chaparmukh (Assam, Индия) (178 км)
Погода в Mazbat (Assam, Индия) (184 км)

Пояснения к столбцам:

Ветер - указаны скорость ветра в м/с - средняя за 10 мин, порывы в срок и между сроками (в фигурных скобках) и направление, откуда дует ветер: С - северный, СВ - северо-восточный, В - восточный, ЮВ - юго-восточный, Ю - южный, ЮЗ - юго-западный, З - западный, СЗ - северо-западный.
Видимость - горизонтальная дальность видимости в метрах или километрах. При видимости от 1 до 10 км при отсутствии осадков обычно наблюдается дымка, при ухудшении видимости до 1 км и менее - туман. В сухую погоду видимость может ухудшаться дымом, пылью или мглою.
Явления - указаны атмосферные явления, наблюдавшиеся в срок или в последний час перед сроком; фигурными скобками обозначены явления, наблюдавшиеся между сроками (за 1-3 часа до срока); квадратными скобками обозначены град или гололедные отложения с указанием их диаметра в мм.
Облачность - указаны через наклонную черту общая и нижняя облачность в баллах и высота нижней границы облаков в метрах; квадратными скобками обозначены формы облаков: Ci - перистые, Cs - перисто-слоистые, Cc - перисто-кучевые, Ac - высококучевые, As - высокослоистые, Sc - слоисто-кучевые, Ns - слоисто-дождевые, Cu - кучевые, Cb - кучево-дождевые. Подробнее классификацию облаков см. в Атласе облаков (PDF).
T - Температура воздуха - температура, измеренная на высоте 2 м над землей.
Td - Температура точки росы - температура, при понижении до которой содержащийся в воздухе водяной пар достигнет насыщения.
f - Относительная влажность воздуха - влажноcть воздуха, измеренная на высоте 2 м над землей.
Te - Эффективная температура - температура, которую ощущает одетый по сезону человек в тени. Характеристика душности погоды. При расчете учитывается влияние влажности воздуха и скорости ветра на теплоощущения человека.
Tes - Эффективная температура на солнце - температура, которую ощущает человек, с поправкой на солнечный нагрев. Характеристика знойности погоды. Зависит от высоты солнца над горизонтом, облачности и скорости ветра. Ночью, в пасмурную погоду, а также при ветре 12 м/с и более поправка равна нулю.
P - Атмосферное давление - приведенное к уровню моря атмосферное давление.
Po - Атмосферное давление - измеренное на уровне метеостанции атмосферное давление.
Tmin - Минимальная температура - минимум температуры воздуха на высоте 2 м над землей.
Tmax - Максимальная температура - максимум температуры воздуха на высоте 2 м над землей.
R - Количество осадков - Количество выпавших осадков за период времени, мм. При наведении курсора мыши на число - период времени, за который выпало указанное количество осадков.
R24 - Количество осадков - Количество выпавших осадков за 24 часа, мм.
S - Снежный покров - Высота снежного покрова, см. При наведении курсора мыши на число - состояние снежного покрова и степень покрытия местности в баллах.